Location: �perlecques
(50.8057°N, 2.1521°E)
Time: 17:25:59
(UTC+00:00)

KKS-1 - Pass Details

Date: 09 April 2023
Orbit: 633 x 644 km, 98.2° (Epoch: 03 June)

Event Time Altitude Azimuth Distance (km) Brightness Sun altitude
Rises 22:10:32 0° 18° (NNE) 2,944 ? -27.4°
Reaches altitude 10° 22:12:49 10° 24° (NNE) 2,032 ? -27.6°
Enters shadow 22:15:08 28° 41° (NE) 1,187 ? -27.7°
